Location: *
(40.7190°N, 4.2480°W)
Time: 09:23:38
(UTC+00:00)

Cosmos 1943 Rocket - Pass Details

Date: 18 February 2020
Orbit: 813 x 842 km, 71.0° (Epoch: 03 April)

Event Time Altitude Azimuth Distance (km) Brightness Sun altitude
Exits shadow 04:12:52 - 358° (N) 2,469 4.7 -33.7°
Reaches altitude 10° 04:13:04 10° 360° (N) 2,411 4.7 -33.6°
Maximum altitude 04:17:35 25° 55° (NE) 1,584 4.1 -32.8°
Drops below altitude 10° 04:22:04 10° 110° (ESE) 2,400 5.2 -32.0°
Sets 04:24:54 0° 123° (ESE) 3,330 5.9 -31.4°
